星链-5336 (STARLINK-5336 )

导读

STARLINK-5336是美国SpaceX公司星链(Starlink)低轨互联网星座中的一颗卫星,于2023年6月23日发射升空。作为星链大规模组网的组成部分,它运行在近地轨道,依托星链星座的整体架构,为全球提供高速低延迟的卫星宽带服务,支持包括偏远地区互联网接入、移动网络连接等多元应用,是星链实现全球覆盖目标中的一环,也延续了星链项目推进大规模低轨卫星组网的发展节奏。

基本信息
目录编号:
57138
目录名称:
STARLINK-5336
国际标识:
2023-090AP
轨道中心:
EARTH
卫星名称:
星链-5336
卫星全名:
星链-5336 (STARLINK-5336 )
卫星状态:
在轨 (已飞行1090 天)
发射日期:
2023-06-23 UTC
国别 :
美国 (US)
星等 :
--
轨道信息
数据来源 国际轨道数据
星历时间: 2026-06-16T17:52:35+0800
23小时前
查看轨道信息
半长轴: 6861.198km
偏心率: 0.0000822
轨道倾角: 43.002°
近地点辐角 261.044°
升交点赤经 65.643°
平近点角 99.032°
近地点: 482.497km
远地点: 483.625km
周期: 94.267分钟
每日圈数: 15.275762
详细信息
固有亮度:
5
最大亮度:
2.4
卫星平台:
Starlink v1.5
覆盖范围:
全球
运营商:
太空探索技术公司
运营商所在国:
美国
制造商(研发单位):
太空探索技术公司
制造商所在国:
美国
使用方式:
暂无
卫星简介
星链(Starlink)计划是由太空探索技术公司(SpaceX)提出的一个巨型低轨卫星互联网星座项目,计划在2019年至2024年间在太空搭建由约1.2万颗卫星组成的“星链”网络,其中1584颗将部署在地球上空550千米处的近地轨道,并从2020年开始工作。该卫星仍在工作。
2D轨道图
3D轨道图
轨道高度分析图
轨道倾角分析图
轨道综合分析图
查看轨道综合分析图